Location: Newark
(50.0336°N, 22.0047°E)
Time: 01:44:16
(UTC+00:00)

N. Korean satellite - Pass Details

Date: 26 January 2020
Orbit: 456 x 505 km, 97.2° (Epoch: 26 February)

Event Time Altitude Azimuth Distance (km) Brightness Sun altitude
Rises 05:15:26 0° 3° (N) 2,537 10.1 -9.5°
Reaches altitude 10° 05:17:39 10° 352° (N) 1,662 9.0 -9.2°
Maximum altitude 05:20:45 28° 292° (WNW) 939 7.4 -8.7°
Drops below altitude 10° 05:23:51 10° 232° (SW) 1,675 9.0 -8.2°
Sets 05:26:07 0° 221° (SW) 2,560 10.0 -7.9°
